TimeCDT,TemperatureF,Dew PointF,Humidity,Sea Level PressureIn,VisibilityMPH,Wind Direction,Wind SpeedMPH,Gust SpeedMPH,PrecipitationIn,Events,Conditions,WindDirDegrees,DateUTC
12:52 AM,36.0,21.9,57,30.37,-9999.0,Variable,6.9,-,N/A,,Unknown,0,2013-04-03 05:52:00
1:52 AM,34.0,21.9,61,30.37,-9999.0,East,4.6,-,N/A,,Unknown,90,2013-04-03 06:52:00
2:52 AM,33.1,21.9,64,30.37,-9999.0,Calm,Calm,-,N/A,,Unknown,0,2013-04-03 07:52:00
3:52 AM,30.9,21.9,69,30.38,-9999.0,Calm,Calm,-,N/A,,Unknown,0,2013-04-03 08:52:00
4:52 AM,30.0,21.9,72,30.38,-9999.0,Calm,Calm,-,N/A,,Unknown,0,2013-04-03 09:52:00
5:52 AM,28.0,21.9,78,30.41,-9999.0,Calm,Calm,-,N/A,,Unknown,0,2013-04-03 10:52:00
6:52 AM,28.9,23.0,78,30.42,-9999.0,North,4.6,-,N/A,,Unknown,10,2013-04-03 11:52:00
7:52 AM,30.9,21.9,69,30.45,-9999.0,NE,3.5,-,N/A,,Unknown,50,2013-04-03 12:52:00
8:52 AM,36.0,21.9,57,30.45,-9999.0,Variable,6.9,-,N/A,,Unknown,0,2013-04-03 13:52:00
9:52 AM,39.0,21.9,50,30.46,-9999.0,ESE,10.4,-,N/A,,Unknown,110,2013-04-03 14:52:00
10:52 AM,43.0,21.9,43,30.43,-9999.0,ESE,10.4,-,N/A,,Unknown,110,2013-04-03 15:52:00
11:52 AM,45.0,21.0,39,30.42,-9999.0,East,8.1,17.3,N/A,,Unknown,90,2013-04-03 16:52:00
12:52 PM,46.0,19.9,35,30.40,-9999.0,Calm,Calm,-,N/A,,Unknown,0,2013-04-03 17:52:00
1:52 PM,48.9,21.9,35,30.38,-9999.0,ENE,6.9,-,N/A,,Unknown,60,2013-04-03 18:52:00
2:52 PM,52.0,21.0,30,30.35,-9999.0,NE,10.4,-,N/A,,Unknown,40,2013-04-03 19:52:00
3:52 PM,51.1,21.0,31,30.34,-9999.0,ENE,8.1,-,N/A,,Unknown,60,2013-04-03 20:52:00
4:52 PM,52.0,18.0,26,30.32,-9999.0,NE,9.2,-,N/A,,Unknown,50,2013-04-03 21:52:00
5:52 PM,50.0,14.0,24,30.31,-9999.0,Calm,Calm,-,N/A,,Unknown,0,2013-04-03 22:52:00
6:52 PM,48.0,18.0,30,30.31,-9999.0,East,6.9,-,N/A,,Unknown,100,2013-04-03 23:52:00
7:52 PM,45.0,21.9,40,30.31,-9999.0,ESE,4.6,-,N/A,,Unknown,110,2013-04-04 00:52:00
8:52 PM,43.0,21.0,42,30.31,-9999.0,Calm,Calm,-,N/A,,Unknown,0,2013-04-04 01:52:00
9:52 PM,41.0,23.0,49,30.31,-9999.0,ESE,3.5,-,N/A,,Unknown,120,2013-04-04 02:52:00
10:52 PM,35.1,24.1,64,30.31,-9999.0,Calm,Calm,-,N/A,,Unknown,0,2013-04-04 03:52:00
11:52 PM,34.0,24.1,67,30.30,-9999.0,Calm,Calm,-,N/A,,Unknown,0,2013-04-04 04:52:00